Location: Borgo
(42.3939°N, 9.2791°E)
Time: 19:10:03
(UTC+00:00)

OE (NEXTSAT) - Pass Details

Date: 27 February 2020
Orbit: 431 x 441 km, 46.0° (Epoch: 05 April)

Event Time Altitude Azimuth Distance (km) Brightness Sun altitude
Rises 18:07:22 0° 290° (WNW) 2,405 9.6 -11.5°
Reaches altitude 10° 18:09:30 10° 292° (WNW) 1,538 8.3 -11.8°
Maximum altitude 18:12:58 71° 17° (NNE) 464 4.3 -12.5°
Enters shadow 18:15:01 23° 98° (E) 985 5.5 -12.9°
